Weather History for Torrington, WY

Change the Weather History Date:

Sunday, November 25, 2012

  Actual Average Record
Temperature  
Mean Temperature 40 °F 32 °F  
Max Temperature 50 °F 45 °F 61 °F (2005)
Min Temperature 30 °F 18 °F 11 °F (2010)
Degree Days  
Heating Degree Days 25 33  
Month to date heating degree days 581 700  
Since 1 July heating degree days 1207 1410  
Cooling Degree Days 0 0  
Month to date cooling degree days 0 0  
Year to date cooling degree days 1021 678  
Moisture  
Dew Point 27 °F    
Average Humidity 64    
Maximum Humidity 89    
Minimum Humidity 39    
Precipitation  
Precipitation T in 0.01 in 0.10 in (2001)
Month to date precipitation 0.05 0.39  
Year to date precipitation 6.96 13.79  
Sea Level Pressure  
Sea Level Pressure 29.95 in    
Wind  
Wind Speed 9 mph (ENE)    
Max Wind Speed 25 mph    
Max Gust Speed 31 mph    
Visibility 9 miles    
Events Snow    
T = Trace of Precipitation, MM = Missing Value Source: NWS Daily Summary

Daily Weather History Graph

Daily Weather History Graph

Search for Another Location

Airport:

Trip Planner

Search our weather history database for the weather conditions in past years. The results will help you decide how hot, cold, wet, or windy it might be!

Date:

Astronomy

Nov. 25, 2012 Rise Set
Actual Time 6:59 AM MST 4:28 PM MST
Civil Twilight 6:28 AM MST 4:58 PM MST
Nautical Twilight 5:53 AM MST 5:33 PM MST
Astronomical Twilight 5:20 AM MST 6:06 PM MST
Moon 2:48 PM MST (11/25) 4:13 AM MST (11/25)
Length of Visible Light 10h 30m
Length of Day
9h 28m
Waxing Gibbous, 93% of the Moon is Illuminated
Nov 25
Waxing Gibbous
Nov 28
Full
Dec 6
Last Quarter
Dec 13
New
Dec 19
First Quarter

Hourly Weather History & Observations

Time (MST) Temp. Windchill Dew Point Humidity Pressure Visibility Wind Dir Wind Speed Gust Speed Precip Events Conditions
12:53 AM 32.0 °F - 19.9 °F 61% 29.94 in 10.0 mi Calm Calm - N/A   Partly Cloudy
1:53 AM 30.9 °F 26.2 °F 21.0 °F 67% 29.93 in 10.0 mi NNE 4.6 mph - N/A   Overcast
2:53 AM 32.0 °F - 21.9 °F 66% 29.93 in 10.0 mi Calm Calm - N/A   Overcast
3:53 AM 32.0 °F - 21.9 °F 66% 29.92 in 10.0 mi Calm Calm - N/A   Overcast
4:53 AM 33.1 °F 30.0 °F 21.9 °F 64% 29.92 in 10.0 mi NW 3.5 mph - N/A   Overcast
5:53 AM 34.0 °F - 23.0 °F 64% 29.95 in 10.0 mi Calm Calm - N/A   Overcast
6:53 AM 34.0 °F 28.0 °F 24.1 °F 67% 29.94 in 10.0 mi East 6.9 mph - N/A   Overcast
7:53 AM 35.1 °F 31.0 °F 25.0 °F 67% 29.93 in 10.0 mi SE 4.6 mph - N/A   Scattered Clouds
8:53 AM 41.0 °F 35.8 °F 26.1 °F 55% 29.92 in 10.0 mi SE 8.1 mph - N/A   Clear
9:53 AM 43.0 °F 36.8 °F 25.0 °F 49% 29.90 in 10.0 mi ESE 11.5 mph - N/A   Clear
10:53 AM 48.0 °F - 25.0 °F 41% 29.87 in 10.0 mi ESE 11.5 mph - N/A   Clear
11:53 AM 48.0 °F - 26.1 °F 42% 29.84 in 10.0 mi SE 9.2 mph - N/A   Clear
12:53 PM 48.0 °F - 27.0 °F 44% 29.83 in 10.0 mi East 11.5 mph - N/A   Overcast
1:53 PM 46.9 °F - 28.0 °F 48% 29.84 in 10.0 mi East 12.7 mph - N/A   Overcast
2:53 PM 46.9 °F - 28.0 °F 48% 29.84 in 10.0 mi East 12.7 mph - N/A   Mostly Cloudy
3:53 PM 45.0 °F 41.8 °F 28.0 °F 52% 29.86 in 10.0 mi ENE 5.8 mph - N/A   Clear
4:53 PM 41.0 °F 33.1 °F 28.9 °F 62% 29.90 in 10.0 mi NE 15.0 mph - N/A   Mostly Cloudy
5:53 PM 37.0 °F 26.4 °F 30.9 °F 79% 29.94 in 10.0 mi NNE 20.7 mph - N/A   Partly Cloudy
6:53 PM 35.1 °F 23.8 °F 32.0 °F 89% 29.98 in 10.0 mi NNE 20.7 mph - N/A   Overcast
7:53 PM 34.0 °F 24.2 °F 30.9 °F 89% 30.01 in 10.0 mi NE 15.0 mph - N/A   Overcast
8:06 PM 33.8 °F 23.9 °F 30.2 °F 87% 29.97 in 10.0 mi NE 15.0 mph - N/A   Overcast
8:53 PM 34.0 °F 24.6 °F 30.0 °F 85% 30.03 in 10.0 mi NE 13.8 mph 18.4 mph N/A   Overcast
9:53 PM 33.1 °F 24.4 °F 30.0 °F 89% 30.04 in 10.0 mi ENE 11.5 mph - N/A   Overcast
10:53 PM 33.1 °F 26.1 °F 28.0 °F 82% 30.07 in 8.0 mi NE 8.1 mph - 0.00 in Snow Light Snow
11:09 PM 30.2 °F 20.8 °F 28.4 °F 93% 30.06 in 2.5 mi NE 11.5 mph - 0.00 in Snow Light Snow
11:18 PM 30.2 °F 20.2 °F 28.4 °F 93% 30.06 in 4.0 mi NE 12.7 mph - 0.00 in Snow Light Snow
11:34 PM 30.2 °F 20.8 °F 28.4 °F 93% 30.07 in 4.0 mi NE 11.5 mph - 0.00 in Snow Light Snow
11:53 PM 30.0 °F 20.0 °F 28.0 °F 92% 30.10 in 9.0 mi NE 12.7 mph - 0.00 in Snow Light Snow